STARLINK-35239

Last updated on Sun Oct 19 2025 00:02:05 GMT+0000 (Coordinated Universal Time)

1 65623U 25210B 25291.25003472 .00102329 00000+0 25420-2 0 9995 2 65623 53.1587 250.7021 0001414 86.6499 311.6800 15.39524449 6003

Satellite not in orbit

STARLINK-35239